User: anonymous   Login
Location: Nairn
(57.5833°N, 3.8667°W)
Time: 13:55:20
(UTC+00:00)
Language:

CZ-4 R/B - Orbit

View from above orbital plane
View from above orbital plane
View from above satellite
View from above satellite

Ground track
Ground track

The orbit data is extracted from the following two-line orbital elements,

1 28059U 03049C   20294.89514188 +.00000049 +00000-0 +23397-4 0  9992
2 28059 098.4830 212.8159 0051130 114.5080 246.1459 14.52614351901020
Epoch (UTC): 20 October 2020 21:29:00
Eccentricity: 0.0051130
inclination: 98.4830°
perigee height: 681 km
apogee height: 753 km
right ascension of ascending node: 212.8159°
argument of perigee: 114.5080°
revolutions per day: 14.52614351
mean anomaly at epoch: 246.1459°
orbit number at epoch: 90102

The dashed part of the orbit path shows where the satellite is in the earth's shadow,  

DLR